Location: Flemlingen
(49.2442°N, 8.0953°E)
Time: 07:42:15
(UTC+00:00)

Daily predictions for brighter satellites

Satellite Brightness Start Highest point End
(mag) Time Altitude Azimuth Time Altitude Azimuth Time Altitude Azimuth
Okean 2 Rocket 4.3 19:35:20 10° SSW 19:39:39 47° WNW 19:44:01 10° N
MetOp-B 4.2 19:34:24 10° SSE 19:39:45 83° ENE 19:45:09 10° NNW
Cosmos 1459 Rocket 4.3 19:35:29 10° SSW 19:41:41 73° W 19:47:49 10° N
Cosmos 1980 Rocket 3.2 19:37:25 10° NW 19:42:50 46° WSW 19:48:13 10° S
Cosmos 2061 Rocket 4.3 19:37:13 10° SSE 19:43:11 51° E 19:49:15 10° NNE
CZ-4 R/B 2.2 19:41:08 10° S 19:44:37 46° W 19:48:09 10° NNW
USA 186 2.6 19:43:11 10° SE 19:45:33 27° ENE 19:47:58 10° N
Cosmos 2228 2.9 19:41:42 10° S 19:45:46 63° E 19:49:50 10° NNE
COSMOS 2406 3.7 19:40:58 10° S 19:46:18 41° ESE 19:51:39 10° NE
Cosmos 2084 Rocket 4.3 19:43:43 10° NW 19:47:44 44° SW 19:51:46 10° SSE
SL-08 R/B 3.6 19:43:19 10° NNE 19:48:02 50° E 19:52:36 10° S
Cosmos 1743 3.1 19:46:24 10° NNW 19:49:20 47° W 19:52:14 10° S
ISS -3.2 19:46:07 10° W 19:49:26 61° N 19:52:46 10° ENE
Cosmos 1461 3.3 19:46:54 10° S 19:50:12 31° ESE 19:53:30 10° ENE
Cosmos 1455 Rocket 3.3 19:46:08 10° SSW 19:50:32 76° W 19:54:56 10° N
Cosmos 1992 Rocket 4.1 19:45:32 10° S 19:50:36 55° ESE 19:55:41 10° NNE
Cosmos 1802 Rocket 4.1 19:45:19 10° SSW 19:51:29 81° W 19:57:40 10° N
Cosmos 1892 Rocket 4.0 19:47:16 10° NNW 19:51:32 61° W 19:55:45 10° S
SKYMED 3 4.3 19:47:58 10° NNE 19:51:55 65° ESE 19:55:51 10° S
Terra 2.0 19:48:00 10° S 19:52:41 74° WSW 19:57:25 10° NNW
Okean O Rocket 1.7 19:53:04 10° SSE 19:57:17 60° ENE 20:01:33 10° N
Cosmos 2333 Rocket 2.5 19:53:22 10° NNW 19:59:00 57° NE 20:04:29 11° SE
NOSS 3-3 (A) 3.7 19:58:57 10° SW 20:04:08 83° SE 20:10:24 10° NE
Cosmos 1544 Rocket 4.0 20:00:14 10° SSE 20:04:20 43° E 20:08:26 10° NNE
Cosmos 1437 Rocket 3.3 20:03:34 10° SSE 20:06:47 34° E 20:10:04 10° NNE
Cosmos 2360 Rocket 2.9 20:03:34 10° NNW 20:08:58 42° NE 20:13:59 12° ESE
Helios 1A Rocket 3.1 20:06:17 10° N 20:09:22 51° WNW 20:12:25 10° SSW
CZ-4B R/B 3.8 20:07:30 10° S 20:13:04 59° W 20:18:37 10° NNW
Cosmos 2233 Rocket 4.1 20:08:52 10° S 20:15:04 84° W 20:21:16 10° N
Okean-O 2.6 20:15:05 10° SSE 20:19:27 85° WSW 20:23:52 10° NNW
Cosmos 1486 Rocket 4.4 20:14:27 10° NNW 20:19:37 52° ENE 20:23:55 15° SE
Cosmos 909 Rocket 4.1 20:15:04 10° SW 20:21:23 89° NW 20:27:58 10° NE
Cosmos 1758 Rocket 3.5 20:17:12 10° N 20:21:38 84° E 20:25:51 11° S
Cosmos 2219 Rocket 3.2 20:16:26 10° NNW 20:21:38 35° NE 20:26:24 12° ESE
CZ-2C R/B 3.7 20:21:09 14° ESE 20:22:30 19° ENE 20:24:35 10° NNE
DNEPR-1 R/B 4.4 20:24:03 10° NW 20:29:30 81° NE 20:34:57 16° SE
Nadezhda 4 Rocket 4.5 20:24:57 10° N 20:30:50 45° ENE 20:35:26 16° SE
USA 245 4.3 20:25:40 13° SSE 20:31:00 74° ENE 20:36:28 10° N
Meteor 1-25 Rocket 4.3 20:25:24 10° N 20:31:03 68° ENE 20:35:41 15° SSE
IRS-1C Rocket 4.4 20:27:08 15° SE 20:31:23 55° ENE 20:36:33 10° N
Cosmos 1825 Rocket 4.4 20:30:12 10° N 20:34:13 35° ENE 20:36:52 18° SE
Cosmos 1805 3.3 20:31:42 10° N 20:34:50 42° ENE 20:36:34 22° SE
Cosmos 220 Rocket 3.9 20:32:42 10° S 20:36:39 57° ESE 20:40:42 10° NNE
NOSS 3-3 (C) 4.0 20:31:26 10° SW 20:36:44 76° NW 20:43:09 10° NE
Cosmos 2322 Rocket 2.3 20:35:57 10° NNW 20:41:38 73° ENE 20:45:49 19° SE
Cosmos 1602 Rocket 3.5 20:41:15 10° N 20:45:35 85° E 20:48:43 19° SSE
USA 306 3.9 20:43:19 10° WNW 20:45:41 23° NNW 20:47:20 10° NE
Cosmos 2082 Rocket 3.6 20:41:02 10° WSW 20:46:27 42° NW 20:51:53 10° NNE
NOSS 3-4 (A) 3.8 20:42:25 10° NW 20:49:07 88° SW 20:55:07 19° SE
NOSS 3-4 (C) 3.8 20:43:04 10° NW 20:49:46 89° SW 20:55:45 19° SE
Cosmos 1707 4.4 20:52:04 11° E 20:52:04 11° E 20:52:48 10° ENE
CZ-4B R/B 2.4 20:49:58 22° S 20:52:03 80° WSW 20:55:32 10° NNW
Cosmos 2151 3.5 20:51:48 10° NNW 20:55:48 52° W 20:59:05 14° SSW
Cosmos 2098 Rocket 3.0 20:53:24 16° S 20:57:04 69° E 21:01:08 10° NNE
Cosmos 1076 Rocket 4.0 20:54:12 10° N 20:58:17 43° ENE 21:00:20 25° SE
Cosmos 44 4.2 20:53:38 10° NNW 20:58:52 46° NE 21:02:45 17° ESE
Cosmos 2237 Rocket 4.5 20:55:43 10° N 20:59:09 16° NNE 21:02:35 10° ENE
CZ-4C R/B 4.4 20:56:18 10° WNW 21:00:23 26° NNW 21:05:25 10° NE
Ariane Rocket 3.0 20:59:02 20° SSE 21:02:36 85° WSW 21:07:42 10° NNW
Cosmos 2278 4.2 21:03:10 10° NW 21:08:44 56° WSW 21:12:37 20° S
SL-16 R/B 3.1 21:07:24 10° NW 21:12:41 41° WSW 21:16:43 16° S
SPOT 3 Rocket 4.0 21:09:24 17° S 21:13:17 56° W 21:18:21 10° NNW
COSMOS 2428 4.0 21:08:25 10° NNW 21:13:29 32° NE 21:17:37 14° ESE
Meteor 1-5 Rocket 4.3 21:07:47 10° NNW 21:13:34 81° W 21:17:38 21° S
Cosmos 1763 Rocket 3.6 21:10:53 20° S 21:14:24 56° ESE 21:19:34 10° NNE
USA 186 4.2 21:13:27 10° SW 21:14:58 14° W 21:16:31 10° WNW
USA 290 2.0 21:18:07 31° SSW 21:19:29 89° E 21:22:37 10° NNE
Cosmos 1606 Rocket 3.4 21:17:14 23° S 21:19:57 88° E 21:24:16 10° N
Cosmos 990 Rocket 3.9 21:18:11 10° NNW 21:23:23 81° ENE 21:26:04 29° SSE
Cosmos 1464 Rocket 4.0 21:18:41 15° S 21:23:54 85° W 21:30:09 10° N
Helios 1B rocket 3.5 21:24:22 21° E 21:25:20 24° ENE 21:28:14 10° N
CZ-4B R/B 4.0 21:23:15 20° SSW 21:26:19 50° W 21:31:03 10° NNW
Cosmos 1461 4.4 21:23:04 10° WSW 21:26:26 33° NW 21:29:48 10° NNE
ISS -3.4 21:23:08 10° WNW 21:26:29 64° N 21:28:15 25° E
Okean 1 2.9 21:25:54 34° S 21:27:22 88° W 21:30:58 10° N
Cosmos 1726 Rocket 3.2 21:25:49 32° S 21:27:38 78° E 21:31:41 10° NNE
BREEZE-M DEB (TANK) 1.2 21:26:02 10° W 21:28:12 64° WNW 21:28:12 64° WNW
Okean O Rocket 4.0 21:31:11 10° SW 21:33:52 16° W 21:36:34 10° NW
Cosmos 1536 3.2 21:32:37 10° N 21:36:10 44° ENE 21:36:59 37° ESE
Cosmos-2242 3.0 21:37:48 40° SSE 21:38:58 57° E 21:43:01 10° NNE
Cosmos 1092 Rocket 4.0 21:35:56 10° N 21:42:07 73° ENE 21:45:20 30° SSE
Cosmos 2333 Rocket 3.7 21:38:12 10° NW 21:42:58 28° WSW 21:46:30 15° SSW
KORONAS-FOTON 4.1 21:43:53 38° E 21:43:54 38° E 21:47:05 10° NNE
Cosmos 2297 Rocket 3.9 21:46:14 16° ESE 21:46:43 16° E 21:50:00 10° ENE
Cosmos 841 Rocket 4.5 21:47:27 27° ESE 21:48:21 28° E 21:52:47 10° NE
Cosmos 1833 4.2 21:44:13 14° SSW 21:49:13 86° WNW 21:54:53 10° NNE
Cosmos 2360 Rocket 3.1 21:47:42 10° NW 21:52:55 39° WSW 21:55:44 23° SSW
CZ-2C R/B 4.0 21:52:45 19° WSW 21:53:10 20° W 21:55:18 10° NW
Cosmos 1842 3.6 21:56:49 35° ENE 21:56:49 35° ENE 21:59:23 10° NNE
Cosmos 1766 2.6 21:53:17 10° NNW 21:56:31 78° W 21:56:45 72° SSW
Cosmos 2322 3.9 21:51:53 10° NNW 21:57:34 64° ENE 22:00:18 31° SE
Cosmos 1975 3.7 21:55:25 10° N 21:58:44 31° ENE 21:59:14 30° E
Cosmos 2034 Rocket 4.3 21:58:36 20° SSW 22:03:07 68° WNW 22:09:27 10° N
Cosmos 372 Rocket 3.9 21:58:23 10° NNW 22:03:32 80° ENE 22:05:24 40° SSE
Cosmos 2221 3.3 22:03:18 31° ESE 22:03:43 32° E 22:07:29 10° NNE
Cosmos 2219 Rocket 2.7 22:00:19 10° NW 22:05:44 48° WSW 22:08:05 31° SSW
Cosmos 1271 Rocket 3.0 22:06:21 43° E 22:06:21 43° E 22:09:21 10° NNE
SL-08 ROCKET BODY 4.5 22:04:43 10° N 22:10:55 73° E 22:13:38 35° SSE
Cosmos 540 Rocket 3.9 22:07:44 17° SW 22:11:40 59° WNW 22:16:46 10° NNE
Helios 1A 2.9 22:13:11 10° N 22:17:06 73° WNW 22:18:07 47° SW
Cosmos 2279 Rocket 4.0 22:16:40 36° SSE 22:19:20 70° E 22:25:35 10° NNE
RESURS DK-1 2.2 22:16:08 10° NNW 22:20:08 81° ENE 22:20:45 61° SE
Aureole 1 Rocket 4.2 22:15:48 10° NNW 22:21:35 62° WSW 22:24:34 33° S
Cosmos 1707 3.4 22:23:33 31° WNW 22:23:35 31° WNW 22:26:11 10° N
Cosmos 2322 Rocket 4.0 22:20:57 10° NW 22:25:04 21° W 22:27:37 16° SW
Cosmos 1634 Rocket 4.0 22:22:33 31° SSW 22:25:44 78° W 22:31:59 10° N
Cosmos 1937 Rocket 3.5 22:23:17 10° NNW 22:28:27 72° ENE 22:30:09 42° SE
TSX-5 3.9 22:27:11 10° NW 22:29:55 48° W 22:29:55 48° W
SL-16 R/B 4.4 22:28:19 10° N 22:32:33 21° NE 22:36:45 10° E
Cosmos 2058 Rocket 3.7 22:30:59 32° SW 22:32:36 48° WNW 22:36:49 10° N
Geosat 4.1 22:27:48 10° NNE 22:32:48 72° WNW 22:35:38 26° SW
Cosmos 468 Rocket 4.2 22:30:14 28° SW 22:33:03 68° WNW 22:38:19 10° NNE
CZ-2C R/B 3.6 22:28:53 10° NNE 22:33:21 69° ESE 22:34:15 54° SSE
GP-B 3.9 22:31:27 10° NNE 22:35:30 36° E 22:36:11 34° ESE
BREEZE-M DEB 4.5 22:32:42 10° WSW 22:37:31 65° SSE 22:52:01 10° E
Meteor 2-9 Rocket 4.1 22:34:10 10° NNW 22:39:35 85° W 22:41:24 44° S
Cosmos 44 4.1 22:35:00 10° NW 22:39:59 39° WSW 22:41:01 35° SW
CZ-2C R/B 3.8 22:39:09 22° ESE 22:41:37 34° ENE 22:46:15 10° N
Lacrosse 4 Rocket 3.1 22:42:43 19° E 22:42:43 19° E 22:44:49 10° ENE
Cosmos 2237 Rocket 2.6 22:38:52 10° NNW 22:44:30 58° ENE 22:47:09 30° ESE
SeaSat 1 4.4 22:43:17 10° E 22:47:11 24° NE 22:51:06 10° N
Cosmos 2266 Rocket 3.9 22:42:05 10° N 22:48:09 73° E 22:50:26 40° SSE
USA 234 3.6 22:42:02 10° ENE 22:48:11 41° SE 22:49:36 37° SSE
Cosmos 1980 3.9 22:43:07 10° NNW 22:48:46 66° ENE 22:51:12 34° SE
Cosmos 1470 3.1 22:46:24 10° NNW 22:49:19 43° W 22:49:19 43° W
Intercosmos 24 4.3 22:49:33 10° N 22:53:13 43° ENE 22:53:29 42° E
ARIANE 5 R/B 2.6 22:52:41 56° SSW 22:53:28 71° WSW 22:57:57 10° NNW
ALOS 2 2.5 22:54:46 61° S 22:55:31 81° WSW 22:59:56 10° NNW
Cosmos 2227 Rocket 3.5 22:55:50 23° ESE 22:56:40 24° ESE 23:01:04 10° NE
COSMOS 2428 2.9 22:52:28 10° NW 22:58:02 56° WSW 22:59:35 42° SSW
Helios 1B rocket 3.5 22:58:18 27° W 22:58:18 27° W 23:01:16 10° NW
Meteor 2-4 Rocket 4.3 23:00:13 34° SE 23:01:38 41° E 23:06:48 10° NNE
BlueWalker 3 4.2 23:05:22 13° E 23:05:22 13° E 23:05:54 10° ENE
ISS -1.6 23:00:01 10° WNW 23:01:11 19° W 23:01:11 19° W
Cosmos 1898 Rocket 4.0 22:58:30 10° NW 23:03:26 45° WSW 23:04:34 39° SW
Cosmos 2263 Rocket 3.9 23:03:56 17° ESE 23:04:50 17° E 23:08:23 10° ENE
CZ-2C R/B 3.6 23:02:03 10° NNE 23:07:43 55° E 23:09:26 41° SSE
Meteor 1-11 Rocket 3.7 23:02:48 10° NNW 23:08:28 77° W 23:10:10 46° S
Cosmos 1766 Rocket 3.9 23:05:10 10° N 23:09:24 54° ENE 23:10:08 47° ESE
SAR-Lupe-2 3.7 23:10:57 59° WNW 23:10:57 59° WNW 23:13:51 10° NNW
Meteor 1-10 Rocket 4.3 23:11:29 41° SSW 23:13:40 82° WNW 23:19:39 10° N
Cosmos 1238 Rocket 3.2 23:14:04 51° ESE 23:14:21 52° E 23:18:37 10° NNE
PSLV R/B 3.5 23:12:10 10° NNE 23:16:29 79° WNW 23:17:16 59° SW
Cosmos 1655 Rocket 4.1 23:15:25 10° N 23:21:39 67° ENE 23:24:15 36° SSE
Alouette 2 Rocket 3.7 23:23:26 10° N 23:27:16 69° ENE 23:28:18 50° SE
Meteor 1-27 Rocket 3.7 23:25:50 45° S 23:27:45 87° E 23:33:31 10° NNE
NOSS 0 Rocket 4.4 23:23:25 10° NW 23:29:14 45° WSW 23:30:48 38° SSW
Cosmos 841 Rocket 4.2 23:27:23 27° WSW 23:29:53 47° WNW 23:34:58 10° NNE
Cosmos 2297 Rocket 2.1 23:27:59 43° SSW 23:29:55 90° ESE 23:35:36 10° NNE
Meteor 2-10 Rocket 4.0 23:24:27 10° N 23:29:57 60° ENE 23:32:13 35° SE
Cosmos 1975 4.4 23:30:42 10° NW 23:33:29 21° W 23:33:29 21° W
SL-14 R/B 4.4 23:39:49 31° E 23:40:01 31° E 23:43:24 10° NNE
Cosmos 2221 4.0 23:39:35 23° W 23:40:47 26° WNW 23:44:20 10° NNW
Cosmos 158 Rocket 4.1 23:39:40 48° SSE 23:41:00 66° ESE 23:46:17 10° NNE
CZ-4C R/B 4.2 23:38:55 10° NNE 23:41:47 32° E 23:41:47 32° E
MetOp-A 4.0 23:42:38 49° SW 23:43:31 57° WSW 23:48:07 10° NNW
ACS3 Solar Sail 2.5 23:38:13 10° NNE 23:43:51 40° E 23:46:10 29° SE
Landsat 5 3.5 23:44:08 10° NNE 23:48:10 59° ESE 23:48:28 57° ESE
